Fort Morgan, CO

11:32 PM MDT on September 21, 2017 (GMT -0600)
Fort Morgan

Weather History for KFMM - March, 2014

Change the Weather History Date:

Wednesday, March 26, 2014

  Actual Average (KAKO) Record (KAKO)
Temperature  
Mean Temperature 46 °F -  
Max Temperature 71 °F 58 °F 81 °F (2012)
Min Temperature 22 °F 27 °F 0 °F (1965)
Degree Days  
Heating Degree Days 18    
Moisture  
Dew Point 23 °F    
Average Humidity 45    
Maximum Humidity 92    
Minimum Humidity 12    
Precipitation  
Precipitation 0.00 in - - ()
Sea Level Pressure  
Sea Level Pressure 29.51 in    
Wind  
Wind Speed 8 mph (West)    
Max Wind Speed 18 mph    
Max Gust Speed 32 mph    
Visibility 10 miles    
Events Rain    
Averages and records for this station are not official NWS values.
T = Trace of Precipitation, MM = Missing Value Source: NWS Daily Summary

Daily Weather History Graph

Daily Weather History Graph

Search for Another Location

Airport or City:

Trip Planner

Search our weather history database for the weather conditions in past years. The results will help you decide how hot, cold, wet, or windy it might be!

Date:

Astronomy

Mar. 26, 2014 Rise Set
Actual Time 6:48 AM MDT 7:13 PM MDT
Civil Twilight 6:21 AM MDT 7:40 PM MDT
Nautical Twilight 5:49 AM MDT 8:13 PM MDT
Astronomical Twilight 5:16 AM MDT 8:45 PM MDT
Moon 3:59 AM MDT (3/26) 2:54 PM MDT (3/26)
Length of Visible Light 13h 19m
Length of Day
12h 24m
Waning Crescent, 21% of the Moon is Illuminated
Mar 26
Waning Crescent
Mar 30
New
Apr 7
First Quarter
Apr 15
Full
Apr 22
Last Quarter

Hourly Weather History & Observations

Time (MDT) Temp. Windchill Dew Point Humidity Pressure Visibility Wind Dir Wind Speed Gust Speed Precip Events Conditions
12:15 AM 39.2 °F 34.2 °F 21.6 °F 49% 29.73 in 10.0 mi SSE 6.9 mph - N/A   Clear
12:35 AM 38.1 °F 33.7 °F 21.7 °F 52% 29.72 in 10.0 mi SE 5.8 mph - N/A   Clear
12:55 AM 38.8 °F 35.4 °F 21.9 °F 51% 29.71 in 10.0 mi ESE 4.6 mph - N/A   Clear
1:15 AM 36.5 °F 33.9 °F 21.7 °F 55% 29.70 in 10.0 mi ESE 3.5 mph - N/A   Clear
1:35 AM 34.5 °F - 21.2 °F 58% 29.70 in 10.0 mi Calm Calm - N/A   Clear
1:55 AM 33.1 °F - 21.2 °F 62% 29.69 in 10.0 mi Calm Calm - N/A   Clear
2:15 AM 32.7 °F - 21.6 °F 64% 29.69 in 10.0 mi Calm Calm - N/A   Clear
2:35 AM 33.1 °F 28.7 °F 21.7 °F 63% 29.68 in 10.0 mi WSW 4.6 mph - N/A   Clear
2:55 AM 28.4 °F 19.1 °F 22.3 °F 78% 29.67 in 10.0 mi West 10.4 mph - N/A   Clear
3:15 AM 29.3 °F 23.2 °F 22.3 °F 75% 29.66 in 10.0 mi WNW 5.8 mph - N/A   Clear
3:35 AM 30.7 °F 21.4 °F 23.0 °F 73% 29.65 in 10.0 mi WNW 11.5 mph - N/A   Clear
3:55 AM 28.0 °F 19.3 °F 22.6 °F 80% 29.65 in 10.0 mi West 9.2 mph - N/A   Clear
4:15 AM 26.4 °F 17.3 °F 21.6 °F 82% 29.64 in 10.0 mi West 9.2 mph - N/A   Clear
4:35 AM 27.0 °F 16.1 °F 22.5 °F 83% 29.64 in 10.0 mi West 12.7 mph - N/A   Clear
4:55 AM 26.8 °F 17.1 °F 22.6 °F 84% 29.63 in 10.0 mi West 10.4 mph - N/A   Clear
5:15 AM 27.0 °F 18.7 °F 22.8 °F 84% 29.62 in 10.0 mi WNW 8.1 mph - N/A   Clear
5:35 AM 26.1 °F 18.4 °F 21.9 °F 84% 29.63 in 10.0 mi SSW 6.9 mph - N/A   Clear
5:55 AM 24.8 °F 17.9 °F 21.7 °F 88% 29.63 in 10.0 mi WSW 5.8 mph - N/A   Clear
6:15 AM 23.7 °F 15.6 °F 21.2 °F 90% 29.63 in 10.0 mi West 6.9 mph - N/A   Clear
6:35 AM 23.2 °F 15.0 °F 20.7 °F 90% 29.62 in 10.0 mi West 6.9 mph - N/A   Clear
6:55 AM 22.5 °F 13.2 °F 20.5 °F 92% 29.62 in 10.0 mi West 8.1 mph - N/A   Clear
7:15 AM 25.7 °F 19.0 °F 22.5 °F 88% 29.61 in 10.0 mi NW 5.8 mph - N/A   Clear
7:35 AM 27.3 °F 19.9 °F 22.6 °F 83% 29.61 in 10.0 mi SW 6.9 mph - N/A   Clear
7:55 AM 28.8 °F 19.5 °F 25.0 °F 86% 29.61 in 10.0 mi WSW 10.4 mph - N/A   Clear
8:15 AM 30.7 °F 21.4 °F 25.7 °F 82% 29.61 in 10.0 mi West 11.5 mph - N/A   Clear
8:35 AM 34.0 °F 27.2 °F 27.1 °F 76% 29.59 in 10.0 mi West 8.1 mph - N/A   Clear
8:55 AM 39.4 °F 33.2 °F 27.7 °F 63% 29.59 in 10.0 mi West 9.2 mph - N/A   Clear
9:15 AM 44.2 °F 38.8 °F 27.5 °F 52% 29.58 in 10.0 mi West 10.4 mph - N/A   Clear
9:35 AM 48.9 °F - 25.2 °F 40% 29.59 in 10.0 mi West 9.2 mph - N/A   Clear
9:55 AM 52.0 °F - 24.8 °F 35% 29.59 in 10.0 mi West 10.4 mph - N/A   Clear
10:15 AM 53.6 °F - 22.1 °F 29% 29.57 in 10.0 mi WSW 10.4 mph - N/A   Clear
10:35 AM 54.9 °F - 24.4 °F 31% 29.57 in 10.0 mi West 9.2 mph - N/A   Clear
10:55 AM 56.3 °F - 25.0 °F 30% 29.56 in 10.0 mi West 9.2 mph - N/A   Clear
11:15 AM 58.3 °F - 24.1 °F 27% 29.55 in 10.0 mi WSW 10.4 mph - N/A   Clear
11:35 AM 61.0 °F - 24.6 °F 25% 29.54 in 10.0 mi WSW 8.1 mph - N/A   Clear
11:55 AM 63.1 °F - 23.0 °F 22% 29.52 in 10.0 mi WSW 8.1 mph - N/A   Clear
12:15 PM 60.6 °F - 23.9 °F 25% 29.51 in 10.0 mi West 5.8 mph - N/A   Clear
12:35 PM 63.5 °F - 23.0 °F 21% 29.50 in 10.0 mi WSW 8.1 mph - N/A   Clear
12:55 PM 66.2 °F - 18.5 °F 16% 29.48 in 10.0 mi SW 6.9 mph 10.4 mph N/A   Clear
1:15 PM 68.5 °F - 17.2 °F 14% 29.47 in 10.0 mi SW 9.2 mph 18.4 mph N/A   Clear
1:35 PM 69.4 °F - 18.1 °F 14% 29.46 in 10.0 mi SW 10.4 mph 16.1 mph N/A   Clear
1:55 PM 68.5 °F - 15.4 °F 13% 29.44 in 10.0 mi West 4.6 mph - N/A   Clear
2:15 PM 69.8 °F - 16.9 °F 13% 29.43 in 10.0 mi WNW 5.8 mph - N/A   Clear
2:35 PM 69.8 °F - 16.2 °F 13% 29.41 in 10.0 mi WNW 8.1 mph - N/A   Clear
2:55 PM 71.4 °F - 16.5 °F 12% 29.39 in 10.0 mi SSW 4.6 mph - N/A   Clear
3:15 PM 71.2 °F - 16.9 °F 13% 29.38 in 10.0 mi West 10.4 mph 19.6 mph N/A   Scattered Clouds
3:35 PM 68.9 °F - 16.9 °F 14% 29.38 in 10.0 mi West 12.7 mph 19.6 mph N/A   Scattered Clouds
3:55 PM 67.5 °F - 16.7 °F 14% 29.37 in 10.0 mi West 16.1 mph - N/A   Scattered Clouds
4:15 PM 66.4 °F - 17.2 °F 15% 29.36 in 10.0 mi WNW 18.4 mph - N/A   Mostly Cloudy
4:35 PM 66.9 °F - 18.9 °F 16% 29.35 in 10.0 mi WNW 16.1 mph 23.0 mph N/A   Scattered Clouds
4:55 PM 65.3 °F - 18.7 °F 17% 29.35 in 10.0 mi WNW 12.7 mph - N/A   Clear
5:15 PM 66.2 °F - 17.4 °F 15% 29.35 in 10.0 mi WNW 13.8 mph - N/A   Clear
5:35 PM 64.6 °F - 18.7 °F 17% 29.34 in 10.0 mi NW 10.4 mph - N/A   Clear
5:55 PM 63.7 °F - 20.8 °F 19% 29.33 in 10.0 mi NNW 5.8 mph - N/A   Clear
6:15 PM 60.3 °F - 22.6 °F 24% 29.33 in 10.0 mi NNW 5.8 mph - N/A   Scattered Clouds
6:35 PM 59.2 °F - 23.9 °F 26% 29.33 in 10.0 mi WNW 3.5 mph - N/A   Mostly Cloudy
6:55 PM 58.6 °F - 22.5 °F 25% 29.33 in 10.0 mi NNW 9.2 mph - N/A   Overcast
7:15 PM 58.6 °F - 21.7 °F 24% 29.35 in 10.0 mi SW 6.9 mph - N/A   Overcast
7:35 PM 60.3 °F - 23.9 °F 25% 29.33 in 10.0 mi Calm Calm - N/A   Overcast
7:55 PM 59.9 °F - 22.8 °F 24% 29.33 in 10.0 mi NNW 8.1 mph - N/A   Mostly Cloudy
8:15 PM 56.1 °F - 23.4 °F 28% 29.33 in 10.0 mi NNW 4.6 mph - N/A   Mostly Cloudy
8:35 PM 54.0 °F - 25.7 °F 34% 29.33 in 10.0 mi NNE 6.9 mph - N/A   Overcast
8:55 PM 55.8 °F - 25.5 °F 31% 29.34 in 10.0 mi NNW 11.5 mph - N/A   Overcast
9:15 PM 55.4 °F - 24.8 °F 31% 29.35 in 10.0 mi NW 13.8 mph - N/A   Overcast
9:35 PM 56.3 °F - 25.5 °F 31% 29.38 in 10.0 mi West 11.5 mph 19.6 mph N/A   Overcast
9:55 PM 52.9 °F - 28.2 °F 39% 29.40 in 10.0 mi WNW 12.7 mph 31.1 mph N/A   Light Drizzle
10:15 PM 53.2 °F - 28.6 °F 39% 29.39 in 10.0 mi NW 8.1 mph 16.1 mph N/A   Overcast
10:35 PM 51.8 °F - 30.0 °F 43% 29.37 in 10.0 mi North 8.1 mph - N/A   Overcast
10:55 PM 50.2 °F - 30.9 °F 48% 29.38 in 10.0 mi North 9.2 mph - N/A   Overcast
11:15 PM 49.5 °F - 33.1 °F 53% 29.41 in 10.0 mi WSW 13.8 mph 24.2 mph N/A   Overcast
11:35 PM 46.0 °F 38.8 °F 37.4 °F 72% 29.42 in 10.0 mi NNE 18.4 mph 32.2 mph N/A Rain Light Rain
11:55 PM 44.2 °F 38.0 °F 38.5 °F 80% 29.41 in 10.0 mi NNE 12.7 mph - N/A   Light Drizzle